Weather in Potrusovo

Russia / Kostroma Oblast     58°26′40″N   43°40′43″E
temp.,
°C
wind,
m/s
gust,
m/s
humid.,
%
clouds,
%
prec.,
mm/h
press.,
hPa
HPBL,
m
13 may, thu
thu1300:00+15ese28805 0.0 1023167
03:00+13ese229357 0.0 102421
06:00+14ese238290 0.0 102376
09:00+21se465361 0.0 1023877
12:00+24se584359 0.0 10222250
15:00+23sse374699 0.0 1020939
18:00+21se41053100 0.0 1018509
21:00+15se128996 0.7 101833
14 may, fri
fri1400:00+14se279798 1.6 1017246
03:00+13sw269942 2.1 1018175
06:00+13wsw13914 0.0 1019155
09:00+18sw23634 0.0 1019592
12:00+21ssw344490 0.0 10191451
15:00+22ssw3544100 0.0 10191628
18:00+21ssw245645 0.0 1017266
21:00+15ssw117616 0.0 101711
15 may, sat
sat1500:00+13ese22835 0.0 101718
03:00+13ese2288100 0.1 101633
06:00+16ese31086100 0.0 1015279
09:00+22sse4869100 0.0 1014624
12:00+25s465585 0.0 10121348
15:00+27s6114398 0.0 10101888
18:00+20sw6127696 1.5 1010792
21:00+15sse212977 3.1 1011380
16 may, sun
sun1600:00+15s3129470 0.0 1011388
03:00+14ssw399829 0.0 1012266
06:00+15ssw38910 0.0 1013277
09:00+19sw476693 0.0 1013918
12:00+22sw4751100 0.0 10131626
15:00+23sw474311 0.0 10132286
18:00+22sw365519 0.0 10121038
21:00+14w239313 1.8 101459
17 may, mon
mon1700:00+13sw269552 0.2 1014145
03:00+11wsw25975 0.2 1016128
06:00+14nw24910 0.0 1017199
09:00+19nnw2266100 0.0 1018812
12:00+22nw2249100 0.0 10181471
15:00+23nnw1142100 0.0 10181619
18:00+21nne1257100 0.0 101847
21:00+16ene2272100 0.0 101834